Home   Weather   Burgdorf   Past weeks

Flag for Germany Past Weather in Burgdorf, Lower Saxony, Germany — Yesterday and Last 2 Weeks

Now
36 °F

Passing clouds.


Feels Like: 32 °F
Forecast: 38 / 46 °F
Wind: 5 mph from South

Location: Celle Airport

Current Time: Dec 8, 2016 at 6:53:35 am

Latest Report: Dec 8, 2016 at 5:20 am


Visibility: N/A

Pressure: 30.33 "Hg

Humidity: 87%

Dew Point: 32 °F

Location of BurgdorfLocation

Past Weather in Burgdorf — Graph

°F

Burgdorf Temperature Yesterday

Maximum temperature yesterday: 41 °F (at 8:20 pm)
Minimum temperature yesterday: 23 °F (at 5:20 am)
Average temperature yesterday: 33 °F

High & Low Weather Summary for the Past Weeks

 TemperatureHumidityPressure
High54 °F (Nov 23, 1:20 pm)100% (Nov 23, 8:20 am)30.60 "Hg (Nov 23, 8:20 am)
Low18 °F (Nov 29, 3:20 am)49% (Dec 2, 2:20 pm)29.95 "Hg (Dec 2, 1:20 am)
Average32 °F90%30.28 "Hg
* Reported Nov 23 5:20 am — Dec 8 5:20 am, Burgdorf, Weather by CustomWeather, © 2016

Note: Actual official high and low records may vary slightly from our data, if they occured in-between our weather recording intervals... More about our weather records

Advertising

Burgdorf Weather History for the Previous 24 Hours

Scroll right to see more
 ConditionsComfort  
Time TempWeatherWind HumidityBarometerVisibility
5:20 am
Thu, Dec 8
36 °FPassing clouds.5 mph87%30.33 "HgN/A
4:20 am37 °FPassing clouds.3 mph87%30.33 "HgN/A
3:20 am36 °FPassing clouds.2 mph87%30.33 "HgN/A
2:20 am41 °FPassing clouds.5 mph76%30.33 "HgN/A
1:20 am41 °FPassing clouds.7 mph81%30.33 "HgN/A
12:20 am41 °FPassing clouds.7 mph81%30.33 "HgN/A
11:20 pm
Wed, Dec 7
41 °FPassing clouds.8 mph81%30.33 "HgN/A
10:20 pm41 °FPassing clouds.8 mph81%30.36 "HgN/A
9:20 pm41 °FPartly cloudy.8 mph81%30.36 "HgN/A
8:20 pm41 °FPassing clouds.7 mph76%30.36 "HgN/A
7:20 pm39 °FPassing clouds.5 mph81%30.36 "HgN/A
6:20 pm37 °FPassing clouds.5 mph87%30.36 "HgN/A
5:20 pm37 °FPassing clouds.6 mph81%30.36 "HgN/A
4:20 pm37 °FPassing clouds.6 mph81%30.36 "HgN/A
3:20 pm37 °FPartly sunny.5 mph81%30.36 "HgN/A
2:20 pm37 °FPartly sunny.6 mph81%30.36 "HgN/A
1:20 pm36 °FBroken clouds.7 mph81%30.39 "HgN/A
12:20 pm36 °FPartly sunny.7 mph81%30.42 "HgN/A
11:20 am34 °FPartly sunny.6 mph81%30.42 "HgN/A
10:20 am32 °FPartly sunny.6 mph87%30.45 "HgN/A
9:20 am28 °FBroken clouds.6 mph93%30.45 "HgN/A
8:20 am28 °FBroken clouds.5 mph86%30.45 "HgN/A
7:20 am27 °FPassing clouds.3 mph86%30.45 "HgN/A
6:20 am25 °FPassing clouds.2 mph93%30.45 "HgN/A
Weather by CustomWeather, © 2016

See weather overviewHow to use our weather pages